QPF
0.00 0.00 0.00 0.00 0.00 0.00 0.00 0.00 0.00 0.00 0.00 0.00 0.00 0.00 0.00 0.00 0.01 0.01 0.01 0.01 0.01 0.01 0.01 0.01 0.01 0.01 0.01 0.01 0.01 0.00 0.00 0.00 0.00 0.00 0.01 0.03 0.10 0.18 0.24 0.25 0.25 0.24 0.23 0.22
0.00 0.00 0.00 0.00 0.00 0.00 0.00 0.00 0.00 0.00 0.00 0.00 0.00 0.00 0.00 0.00 0.00 0.00 0.00 0.00 0.00 0.00 0.00 0.01 0.01 0.00 0.00 0.00 0.00 0.00 0.00 0.00 0.00 0.01 0.01 0.02 0.04 0.08 0.11 0.14 0.16 0.17 0.16 0.17
0.00 0.00 0.00 0.00 0.00 0.00 0.00 0.00 0.00 0.00 0.00 0.00 0.00 0.01 0.00 0.00 0.00 0.00 0.00 0.00 0.00 0.00 0.00 0.00 0.00 0.00 0.00 0.00 0.00 0.00 0.00 0.00 0.00 0.00 0.01 0.02 0.03 0.05 0.06 0.06 0.07 0.09 0.11 0.12
0.00 0.00 0.00 0.00 0.00 0.00 0.00 0.00 0.00 0.00 0.00 0.00 0.01 0.04 0.02 0.00 0.00 0.00 0.00 0.00 0.00 0.00 0.00 0.00 0.00 0.00 0.00 0.00 0.00 0.00 0.00 0.00 0.00 0.00 0.01 0.01 0.02 0.03 0.03 0.04 0.04 0.05 0.06 0.09
0.00 0.00 0.00 0.00 0.00 0.00 0.00 0.00 0.00 0.00 0.00 0.01 0.01 0.04 0.04 0.01 0.01 0.00 0.00 0.00 0.00 0.00 0.00 0.00 0.00 0.00 0.00 0.00 0.00 0.00 0.00 0.00 0.00 0.00 0.00 0.00 0.00 0.01 0.01 0.02 0.02 0.03 0.04 0.05
0.00 0.00 0.00 0.00 0.00 0.00 0.00 0.00 0.00 0.01 0.00 0.02 0.01 0.04 0.07 0.03 0.01 0.00 0.00 0.00 0.00 0.00 0.00 0.00 0.00 0.00 0.00 0.00 0.00 0.00 0.00 0.00 0.00 0.00 0.00 0.00 0.00 0.00 0.00 0.00 0.00 0.01 0.01 0.02
0.00 0.00 0.00 0.00 0.00 0.00 0.01 0.00 0.00 0.00 0.01 0.02 0.01 0.05 0.06 0.02 0.01 0.00 0.01 0.00 0.00 0.00 0.00 0.00 0.00 0.00 0.00 0.00 0.00 0.00 0.00 0.00 0.00 0.00 0.00 0.00 0.00 0.00 0.00 0.00 0.00 0.00 0.00 0.01
0.00 0.00 0.00 0.00 0.00 0.00 0.00 0.00 0.00 0.00 0.01 0.03 0.04 0.08 0.03 0.01 0.00 0.00 0.00 0.00 0.00 0.00 0.00 0.00 0.00 0.00 0.00 0.00 0.00 0.00 0.00 0.00 0.00 0.00 0.00 0.00 0.00 0.00 0.00 0.00 0.00 0.00 0.00 0.00
0.00 0.00 0.00 0.00 0.00 0.00 0.00 0.00 0.00 0.00 0.01 0.04 0.07 0.06 0.03 0.00 0.00 0.00 0.00 0.00 0.00 0.00 0.00 0.00 0.00 0.00 0.00 0.00 0.00 0.00 0.00 0.00 0.00 0.00 0.00 0.00 0.00 0.00 0.00 0.00 0.00 0.00 0.00 0.00
0.00 0.00 0.00 0.00 0.00 0.00 0.00 0.00 0.00 0.00 0.02 0.03 0.04 0.06 0.05 0.01 0.00 0.00 0.00 0.00 0.00 0.00 0.00 0.00 0.00 0.00 0.00 0.00 0.00 0.00 0.00 0.00 0.00 0.00 0.00 0.00 0.00 0.00 0.00 0.00 0.00 0.00 0.00 0.00
0.00 0.00 0.00 0.00 0.00 0.00 0.00 0.00 0.00 0.00 0.00 0.00 0.00 0.01 0.01 0.00 0.00 0.00 0.00 0.00 0.00 0.00 0.00 0.00 0.00 0.00 0.00 0.00 0.00 0.00 0.00 0.00 0.00 0.00 0.00 0.00 0.00 0.00 0.00 0.00 0.00 0.00 0.00 0.00
0.00 0.00 0.00 0.00 0.00 0.00 0.00 0.00 0.00 0.00 0.00 0.00 0.00 0.00 0.00 0.00 0.00 0.00 0.00 0.00 0.00 0.00 0.00 0.00 0.00 0.00 0.00 0.00 0.00 0.00 0.00 0.00 0.00 0.00 0.00 0.00 0.00 0.00 0.00 0.00 0.00 0.00 0.00 0.00
0.00 0.00 0.00 0.00 0.00 0.00 0.00 0.00 0.00 0.00 0.00 0.00 0.00 0.00 0.00 0.00 0.00 0.00 0.00 0.00 0.00 0.00 0.00 0.00 0.00 0.00 0.00 0.00 0.00 0.00 0.00 0.00 0.00 0.00 0.00 0.00 0.00 0.00 0.00 0.00 0.00 0.00 0.00 0.00
0.00 0.00 0.00 0.00 0.00 0.00 0.00 0.00 0.00 0.00 0.00 0.00 0.00 0.00 0.00 0.00 0.00 0.00 0.00 0.00 0.00 0.00 0.00 0.00 0.00 0.00 0.00 0.00 0.00 0.00 0.00 0.00 0.00 0.00 0.00 0.00 0.00 0.00 0.00 0.00 0.00 0.00 0.00 0.00
0.00 0.00 0.00 0.00 0.00 0.00 0.00 0.00 0.00 0.00 0.00 0.00 0.00 0.00 0.00 0.00 0.00 0.00 0.00 0.00 0.00 0.00 0.00 0.00 0.00 0.00 0.00 0.00 0.00 0.00 0.00 0.00 0.00 0.00 0.00 0.00 0.00 0.00 0.00 0.00 0.00 0.01 0.01 0.01
0.00 0.00 0.00 0.00 0.00 0.00 0.00 0.00 0.00 0.00 0.00 0.00 0.00 0.00 0.00 0.00 0.00 0.00 0.00 0.00 0.00 0.00 0.00 0.00 0.00 0.00 0.00 0.00 0.00 0.00 0.00 0.00 0.00 0.00 0.00 0.00 0.00 0.00 0.01 0.01 0.01 0.01 0.02 0.02
0.00 0.00 0.00 0.00 0.00 0.00 0.00 0.00 0.00 0.00 0.00 0.00 0.00 0.00 0.00 0.00 0.00 0.00 0.00 0.00 0.00 0.00 0.00 0.00 0.00 0.00 0.00 0.00 0.00 0.00 0.00 0.00 0.00 0.00 0.00 0.01 0.01 0.01 0.01 0.01 0.02 0.03 0.04 0.04
0.00 0.00 0.00 0.00 0.00 0.00 0.00 0.00 0.00 0.00 0.00 0.00 0.00 0.00 0.00 0.00 0.00 0.00 0.00 0.00 0.00 0.00 0.00 0.00 0.00 0.00 0.00 0.00 0.00 0.00 0.00 0.00 0.00 0.00 0.01 0.01 0.02 0.02 0.02 0.03 0.04 0.05 0.07 0.07
0.00 0.00 0.00 0.00 0.00 0.00 0.00 0.00 0.00 0.00 0.00 0.00 0.00 0.00 0.00 0.00 0.00 0.00 0.00 0.00 0.00 0.00 0.00 0.00 0.00 0.00 0.00 0.00 0.00 0.00 0.00 0.00 0.00 0.01 0.01 0.02 0.02 0.03 0.04 0.04 0.05 0.07 0.09 0.08
0.00 0.00 0.00 0.00 0.00 0.00 0.00 0.00 0.00 0.00 0.00 0.00 0.00 0.00 0.00 0.00 0.00 0.00 0.00 0.00 0.00 0.00 0.00 0.00 0.00 0.00 0.00 0.00 0.00 0.00 0.00 0.00 0.01 0.01 0.02 0.02 0.03 0.05 0.05 0.05 0.06 0.07 0.09 0.09
0.00 0.00 0.00 0.00 0.00 0.00 0.00 0.00 0.00 0.00 0.00 0.00 0.00 0.00 0.00 0.00 0.00 0.00 0.00 0.00 0.00 0.00 0.00 0.00 0.00 0.00 0.00 0.00 0.00 0.00 0.01 0.01 0.01 0.01 0.02 0.02 0.04 0.05 0.05 0.06 0.07 0.08 0.10 0.10
0.00 0.00 0.00 0.00 0.00 0.00 0.00 0.00 0.00 0.00 0.00 0.00 0.00 0.00 0.00 0.00 0.00 0.00 0.00 0.00 0.00 0.00 0.00 0.00 0.00 0.00 0.00 0.00 0.00 0.01 0.01 0.01 0.01 0.02 0.02 0.03 0.04 0.04 0.04 0.06 0.07 0.08 0.08 0.09
0.00 0.00 0.00 0.00 0.00 0.00 0.00 0.00 0.00 0.00 0.00 0.00 0.00 0.00 0.00 0.00 0.00 0.00 0.00 0.00 0.00 0.00 0.00 0.00 0.00 0.00 0.00 0.00 0.00 0.01 0.01 0.01 0.02 0.02 0.02 0.03 0.03 0.04 0.05 0.06 0.07 0.07 0.08 0.08
0.00 0.00 0.00 0.00 0.00 0.00 0.00 0.00 0.00 0.00 0.00 0.00 0.00 0.00 0.00 0.00 0.00 0.00 0.00 0.00 0.00 0.00 0.00 0.00 0.00 0.00 0.00 0.00 0.00 0.01 0.01 0.02 0.02 0.02 0.02 0.02 0.02 0.03 0.03 0.05 0.06 0.07 0.08 0.08
0.00 0.00 0.00 0.00 0.00 0.00 0.00 0.00 0.00 0.00 0.00 0.00 0.00 0.00 0.00 0.00 0.00 0.00 0.00 0.00 0.00 0.00 0.00 0.00 0.00 0.00 0.00 0.00 0.00 0.01 0.01 0.02 0.02 0.01 0.01 0.01 0.02 0.02 0.03 0.04 0.05 0.04 0.06 0.05
0.00 0.00 0.00 0.00 0.00 0.00 0.00 0.00 0.00 0.00 0.00 0.00 0.00 0.00 0.00 0.00 0.00 0.00 0.00 0.00 0.00 0.00 0.00 0.00 0.00 0.00 0.00 0.00 0.00 0.01 0.01 0.02 0.02 0.01 0.01 0.01 0.01 0.02 0.02 0.03 0.04 0.03 0.02 0.02
MSLP
1010.75 1011.09 1011.26 1011.29 1011.23 1011.18 1011.23 1011.45 1011.86 1012.47 1013.22 1014.03 1014.82 1015.51 1016.04 1016.37 1016.51 1016.49 1016.35 1016.15 1015.92 1015.69 1015.47 1015.27 1015.06 1014.85 1014.63 1014.39 1014.15 1013.91 1013.68 1013.45 1013.22 1012.98 1012.71 1012.39 1012.02 1011.61 1011.16 1010.70 1010.26 1009.86 1009.52 1009.27
1011.07 1011.34 1011.43 1011.40 1011.31 1011.25 1011.31 1011.55 1012.00 1012.63 1013.39 1014.19 1014.95 1015.58 1016.05 1016.30 1016.38 1016.31 1016.15 1015.93 1015.71 1015.51 1015.32 1015.15 1014.98 1014.80 1014.60 1014.39 1014.17 1013.95 1013.73 1013.52 1013.31 1013.07 1012.79 1012.46 1012.07 1011.61 1011.13 1010.63 1010.15 1009.73 1009.38 1009.13
1011.27 1011.46 1011.48 1011.39 1011.28 1011.22 1011.30 1011.57 1012.06 1012.71 1013.47 1014.24 1014.96 1015.52 1015.91 1016.09 1016.10 1015.99 1015.79 1015.58 1015.38 1015.20 1015.06 1014.94 1014.81 1014.68 1014.52 1014.33 1014.14 1013.94 1013.74 1013.54 1013.34 1013.11 1012.84 1012.51 1012.11 1011.65 1011.16 1010.65 1010.18 1009.76 1009.43 1009.19
1011.38 1011.47 1011.42 1011.30 1011.17 1011.13 1011.24 1011.56 1012.08 1012.75 1013.51 1014.26 1014.92 1015.42 1015.73 1015.84 1015.79 1015.63 1015.42 1015.22 1015.04 1014.90 1014.81 1014.73 1014.66 1014.56 1014.43 1014.27 1014.09 1013.90 1013.72 1013.53 1013.34 1013.12 1012.87 1012.55 1012.17 1011.73 1011.25 1010.77 1010.32 1009.93 1009.63 1009.41
1011.44 1011.44 1011.33 1011.18 1011.05 1011.04 1011.20 1011.57 1012.12 1012.82 1013.57 1014.29 1014.90 1015.34 1015.58 1015.63 1015.54 1015.35 1015.14 1014.94 1014.79 1014.69 1014.64 1014.60 1014.56 1014.49 1014.38 1014.23 1014.05 1013.87 1013.68 1013.50 1013.31 1013.11 1012.87 1012.57 1012.22 1011.82 1011.38 1010.94 1010.53 1010.17 1009.90 1009.72
1011.51 1011.43 1011.28 1011.11 1011.00 1011.03 1011.24 1011.65 1012.24 1012.94 1013.69 1014.38 1014.94 1015.32 1015.51 1015.52 1015.39 1015.19 1014.98 1014.79 1014.67 1014.60 1014.58 1014.57 1014.54 1014.47 1014.36 1014.20 1014.01 1013.82 1013.62 1013.43 1013.24 1013.05 1012.83 1012.56 1012.25 1011.88 1011.49 1011.09 1010.72 1010.40 1010.15 1009.99
1011.64 1011.51 1011.33 1011.16 1011.08 1011.14 1011.39 1011.84 1012.45 1013.15 1013.87 1014.53 1015.04 1015.37 1015.51 1015.49 1015.34 1015.14 1014.93 1014.77 1014.66 1014.61 1014.60 1014.59 1014.56 1014.49 1014.35 1014.17 1013.96 1013.73 1013.52 1013.31 1013.12 1012.93 1012.73 1012.49 1012.20 1011.87 1011.51 1011.15 1010.81 1010.52 1010.29 1010.13
1011.86 1011.70 1011.52 1011.36 1011.31 1011.41 1011.69 1012.15 1012.76 1013.44 1014.12 1014.71 1015.17 1015.45 1015.56 1015.50 1015.35 1015.15 1014.96 1014.81 1014.71 1014.67 1014.66 1014.64 1014.59 1014.49 1014.32 1014.10 1013.86 1013.60 1013.36 1013.14 1012.94 1012.74 1012.54 1012.32 1012.05 1011.75 1011.41 1011.07 1010.74 1010.46 1010.23 1010.07
1012.16 1012.00 1011.84 1011.71 1011.69 1011.82 1012.11 1012.56 1013.13 1013.76 1014.38 1014.90 1015.30 1015.52 1015.59 1015.51 1015.35 1015.16 1014.98 1014.85 1014.76 1014.72 1014.70 1014.66 1014.58 1014.44 1014.23 1013.98 1013.70 1013.41 1013.14 1012.90 1012.69 1012.49 1012.28 1012.06 1011.79 1011.50 1011.17 1010.82 1010.50 1010.20 1009.96 1009.78
1012.51 1012.38 1012.25 1012.17 1012.18 1012.32 1012.61 1013.03 1013.54 1014.09 1014.62 1015.06 1015.37 1015.54 1015.56 1015.47 1015.31 1015.13 1014.97 1014.84 1014.76 1014.71 1014.67 1014.61 1014.49 1014.32 1014.09 1013.80 1013.49 1013.18 1012.89 1012.63 1012.40 1012.18 1011.96 1011.72 1011.45 1011.14 1010.79 1010.44 1010.09 1009.78 1009.51 1009.31
1012.84 1012.78 1012.71 1012.68 1012.73 1012.88 1013.14 1013.51 1013.94 1014.40 1014.81 1015.15 1015.38 1015.48 1015.46 1015.35 1015.20 1015.03 1014.88 1014.77 1014.69 1014.64 1014.58 1014.49 1014.35 1014.15 1013.89 1013.59 1013.26 1012.94 1012.63 1012.35 1012.10 1011.86 1011.62 1011.35 1011.05 1010.71 1010.34 1009.95 1009.58 1009.23 1008.94 1008.71
1013.12 1013.14 1013.15 1013.18 1013.27 1013.43 1013.66 1013.97 1014.31 1014.65 1014.95 1015.18 1015.32 1015.35 1015.29 1015.17 1015.02 1014.87 1014.74 1014.64 1014.57 1014.51 1014.44 1014.33 1014.17 1013.95 1013.68 1013.36 1013.03 1012.70 1012.39 1012.10 1011.83 1011.56 1011.28 1010.98 1010.64 1010.26 1009.86 1009.44 1009.03 1008.65 1008.32 1008.06
1013.31 1013.42 1013.52 1013.63 1013.76 1013.93 1014.13 1014.37 1014.61 1014.85 1015.03 1015.16 1015.21 1015.18 1015.09 1014.97 1014.83 1014.70 1014.59 1014.50 1014.43 1014.37 1014.28 1014.15 1013.98 1013.75 1013.47 1013.16 1012.83 1012.50 1012.18 1011.88 1011.58 1011.29 1010.97 1010.63 1010.24 1009.83 1009.38 1008.93 1008.49 1008.08 1007.72 1007.42
1013.43 1013.63 1013.82 1014.00 1014.17 1014.35 1014.52 1014.70 1014.85 1014.98 1015.06 1015.09 1015.07 1015.00 1014.89 1014.77 1014.65 1014.54 1014.45 1014.38 1014.32 1014.24 1014.14 1013.99 1013.80 1013.56 1013.28 1012.97 1012.64 1012.32 1012.00 1011.69 1011.37 1011.04 1010.68 1010.29 1009.87 1009.41 1008.93 1008.45 1007.99 1007.55 1007.16 1006.82
1013.48 1013.77 1014.04 1014.27 1014.48 1014.66 1014.81 1014.93 1015.00 1015.04 1015.03 1014.99 1014.91 1014.81 1014.70 1014.59 1014.50 1014.42 1014.35 1014.30 1014.23 1014.14 1014.02 1013.85 1013.63 1013.38 1013.09 1012.78 1012.46 1012.14 1011.82 1011.49 1011.15 1010.79 1010.39 1009.96 1009.49 1009.00 1008.49 1007.98 1007.50 1007.04 1006.63 1006.26
1013.52 1013.86 1014.18 1014.46 1014.68 1014.86 1014.98 1015.04 1015.04 1015.00 1014.93 1014.83 1014.72 1014.61 1014.52 1014.43 1014.38 1014.33 1014.29 1014.24 1014.17 1014.06 1013.91 1013.70 1013.46 1013.18 1012.87 1012.55 1012.23 1011.91 1011.58 1011.25 1010.89 1010.50 1010.07 1009.59 1009.09 1008.56 1008.02 1007.49 1006.99 1006.52 1006.09 1005.69
1013.55 1013.91 1014.25 1014.54 1014.76 1014.91 1014.99 1015.00 1014.95 1014.85 1014.73 1014.60 1014.48 1014.39 1014.32 1014.28 1014.26 1014.25 1014.23 1014.19 1014.10 1013.97 1013.77 1013.53 1013.24 1012.93 1012.60 1012.26 1011.94 1011.61 1011.28 1010.93 1010.56 1010.14 1009.67 1009.17 1008.62 1008.06 1007.49 1006.94 1006.43 1005.95 1005.50 1005.09
1013.59 1013.93 1014.25 1014.51 1014.70 1014.81 1014.84 1014.79 1014.69 1014.56 1014.41 1014.27 1014.17 1014.10 1014.07 1014.08 1014.11 1014.14 1014.14 1014.10 1013.99 1013.82 1013.58 1013.29 1012.95 1012.60 1012.24 1011.89 1011.55 1011.22 1010.89 1010.53 1010.14 1009.70 1009.21 1008.66 1008.09 1007.48 1006.89 1006.32 1005.78 1005.29 1004.84 1004.43
1013.62 1013.90 1014.16 1014.36 1014.49 1014.53 1014.50 1014.41 1014.27 1014.11 1013.96 1013.83 1013.76 1013.74 1013.77 1013.83 1013.91 1013.97 1013.99 1013.94 1013.81 1013.60 1013.32 1012.97 1012.59 1012.20 1011.81 1011.44 1011.09 1010.76 1010.42 1010.07 1009.67 1009.21 1008.69 1008.11 1007.49 1006.85 1006.22 1005.62 1005.06 1004.56 1004.12 1003.71
1013.59 1013.79 1013.95 1014.06 1014.11 1014.09 1014.00 1013.86 1013.70 1013.54 1013.40 1013.31 1013.28 1013.32 1013.41 1013.53 1013.65 1013.74 1013.76 1013.71 1013.56 1013.31 1012.98 1012.59 1012.17 1011.74 1011.33 1010.95 1010.60 1010.27 1009.94 1009.58 1009.17 1008.70 1008.15 1007.54 1006.88 1006.20 1005.52 1004.89 1004.31 1003.80 1003.36 1002.98
1013.47 1013.55 1013.61 1013.62 1013.58 1013.49 1013.36 1013.19 1013.03 1012.88 1012.78 1012.74 1012.77 1012.87 1013.02 1013.19 1013.35 1013.46 1013.49 1013.42 1013.24 1012.96 1012.59 1012.17 1011.72 1011.27 1010.85 1010.47 1010.13 1009.81 1009.48 1009.12 1008.71 1008.22 1007.64 1006.99 1006.29 1005.56 1004.85 1004.18 1003.58 1003.06 1002.64 1002.29
1013.19 1013.17 1013.12 1013.03 1012.92 1012.78 1012.61 1012.45 1012.31 1012.21 1012.16 1012.19 1012.29 1012.45 1012.65 1012.86 1013.04 1013.16 1013.19 1013.10 1012.90 1012.59 1012.20 1011.75 1011.29 1010.84 1010.42 1010.05 1009.72 1009.41 1009.09 1008.73 1008.31 1007.80 1007.20 1006.51 1005.76 1004.99 1004.24 1003.53 1002.91 1002.40 1001.99 1001.69
1012.73 1012.61 1012.46 1012.30 1012.14 1011.97 1011.82 1011.69 1011.60 1011.57 1011.61 1011.71 1011.88 1012.10 1012.34 1012.58 1012.77 1012.88 1012.89 1012.78 1012.55 1012.23 1011.82 1011.37 1010.92 1010.48 1010.08 1009.73 1009.41 1009.11 1008.79 1008.43 1007.99 1007.45 1006.82 1006.09 1005.31 1004.50 1003.71 1002.98 1002.35 1001.85 1001.47 1001.22
1012.09 1011.87 1011.66 1011.45 1011.27 1011.12 1011.01 1010.95 1010.95 1011.01 1011.14 1011.33 1011.57 1011.84 1012.12 1012.36 1012.53 1012.63 1012.61 1012.47 1012.23 1011.89 1011.48 1011.05 1010.61 1010.20 1009.82 1009.50 1009.20 1008.90 1008.58 1008.20 1007.73 1007.16 1006.48 1005.72 1004.90 1004.06 1003.25 1002.52 1001.90 1001.41 1001.08 1000.88
1011.26 1010.99 1010.73 1010.51 1010.35 1010.25 1010.21 1010.25 1010.36 1010.53 1010.77 1011.05 1011.35 1011.66 1011.95 1012.19 1012.34 1012.39 1012.34 1012.17 1011.91 1011.57 1011.18 1010.76 1010.36 1009.98 1009.64 1009.34 1009.04 1008.74 1008.40 1007.99 1007.48 1006.87 1006.15 1005.35 1004.50 1003.65 1002.84 1002.12 1001.53 1001.08 1000.79 1000.64
1010.30 1009.99 1009.72 1009.51 1009.40 1009.37 1009.43 1009.58 1009.82 1010.11 1010.45 1010.82 1011.18 1011.52 1011.81 1012.02 1012.14 1012.16 1012.06 1011.87 1011.59 1011.26 1010.89 1010.51 1010.14 1009.80 1009.49 1009.20 1008.91 1008.60 1008.22 1007.76 1007.19 1006.53 1005.77 1004.94 1004.07 1003.22 1002.43 1001.75 1001.20 1000.80 1000.56 1000.46
Thickness
5785 5782 5780 5782 5786 5783 5781 5777 5770 5760 5761 5757 5742 5732 5730 5733 5732 5729 5728 5729 5729 5729 5730 5730 5729 5728 5727 5724 5722 5720 5718 5718 5717 5717 5717 5717 5718 5719 5719 5718 5715 5713 5711 5710
5777 5774 5782 5786 5785 5780 5777 5772 5765 5755 5755 5752 5739 5730 5730 5729 5727 5727 5725 5724 5724 5723 5723 5721 5721 5721 5718 5715 5713 5712 5710 5709 5708 5706 5706 5707 5708 5710 5709 5708 5707 5705 5705 5705
5771 5777 5784 5780 5778 5775 5776 5774 5769 5755 5748 5750 5741 5727 5727 5727 5727 5724 5723 5721 5719 5717 5715 5714 5713 5712 5710 5707 5705 5703 5699 5698 5697 5696 5698 5699 5700 5701 5699 5697 5697 5696 5696 5698
5774 5780 5777 5775 5776 5776 5770 5779 5773 5758 5746 5744 5743 5726 5725 5725 5722 5720 5718 5717 5715 5712 5711 5709 5707 5705 5703 5701 5699 5695 5692 5689 5687 5686 5687 5684 5684 5684 5685 5685 5686 5686 5687 5688
5770 5773 5771 5769 5773 5776 5772 5778 5772 5762 5755 5747 5743 5735 5722 5725 5718 5717 5715 5713 5712 5710 5708 5704 5702 5700 5697 5695 5692 5689 5685 5681 5679 5676 5675 5673 5674 5674 5676 5675 5675 5674 5677 5677
5772 5779 5777 5774 5779 5779 5775 5770 5765 5763 5759 5736 5740 5733 5713 5721 5717 5715 5713 5710 5707 5706 5703 5700 5698 5695 5691 5689 5685 5681 5677 5673 5670 5667 5665 5662 5660 5660 5660 5660 5662 5664 5666 5667
5763 5771 5779 5782 5775 5776 5772 5759 5745 5737 5734 5732 5739 5730 5711 5718 5717 5714 5711 5707 5705 5702 5698 5694 5691 5687 5683 5680 5676 5672 5668 5663 5660 5658 5655 5653 5651 5649 5648 5649 5651 5651 5654 5655
5753 5752 5766 5772 5768 5764 5764 5760 5741 5727 5730 5734 5731 5719 5710 5714 5714 5712 5709 5705 5701 5696 5693 5688 5684 5680 5676 5671 5667 5662 5658 5653 5650 5648 5645 5643 5640 5641 5642 5641 5640 5640 5641 5643
5755 5749 5766 5768 5771 5767 5759 5758 5760 5747 5740 5729 5725 5714 5706 5708 5706 5705 5702 5698 5693 5689 5685 5680 5676 5672 5667 5661 5657 5652 5647 5643 5640 5638 5636 5634 5633 5630 5630 5629 5628 5630 5631 5631
5762 5748 5759 5764 5771 5762 5761 5754 5750 5740 5717 5713 5720 5715 5706 5702 5701 5699 5694 5691 5687 5683 5678 5673 5669 5664 5658 5653 5648 5644 5639 5634 5631 5628 5626 5626 5623 5621 5620 5619 5618 5616 5616 5616
5764 5749 5750 5754 5743 5740 5749 5744 5741 5738 5727 5710 5706 5712 5714 5704 5699 5694 5691 5687 5682 5676 5672 5667 5661 5656 5650 5646 5641 5636 5631 5626 5623 5620 5616 5613 5612 5610 5608 5607 5606 5605 5604 5602
5758 5755 5741 5740 5745 5750 5745 5737 5735 5721 5712 5713 5708 5710 5713 5705 5699 5692 5686 5682 5676 5671 5665 5660 5654 5648 5642 5637 5631 5627 5622 5618 5615 5611 5607 5604 5601 5599 5597 5595 5593 5590 5588 5587
5755 5744 5730 5729 5734 5741 5736 5732 5731 5726 5717 5710 5701 5705 5707 5702 5695 5689 5683 5677 5670 5664 5658 5651 5645 5638 5633 5627 5622 5617 5613 5609 5606 5602 5598 5595 5591 5588 5584 5580 5576 5573 5570 5570
5756 5743 5735 5728 5729 5734 5727 5724 5724 5721 5713 5704 5701 5699 5705 5700 5691 5685 5678 5670 5664 5657 5650 5644 5637 5631 5625 5619 5614 5609 5605 5601 5597 5593 5588 5584 5579 5575 5570 5564 5559 5555 5552 5551
5754 5740 5735 5734 5735 5732 5726 5719 5715 5711 5705 5699 5696 5694 5697 5694 5685 5677 5671 5665 5658 5651 5644 5637 5631 5625 5619 5613 5608 5602 5598 5593 5589 5584 5579 5574 5569 5562 5556 5550 5543 5538 5534 5532
5750 5737 5732 5727 5728 5725 5718 5715 5711 5706 5703 5699 5696 5695 5700 5690 5681 5674 5668 5660 5653 5646 5639 5632 5626 5619 5613 5607 5601 5596 5591 5587 5581 5575 5570 5565 5558 5551 5543 5535 5528 5522 5518 5515
5747 5734 5725 5726 5724 5716 5711 5717 5710 5707 5706 5698 5690 5693 5694 5684 5675 5668 5662 5654 5647 5640 5633 5627 5621 5614 5608 5602 5595 5590 5585 5580 5574 5568 5561 5555 5547 5540 5531 5523 5515 5508 5503 5500
5738 5731 5727 5725 5713 5697 5720 5728 5717 5706 5704 5704 5698 5695 5689 5680 5672 5666 5660 5650 5642 5635 5628 5622 5616 5610 5604 5598 5591 5584 5578 5572 5566 5560 5553 5546 5537 5529 5521 5512 5504 5496 5490 5487
5741 5730 5726 5721 5714 5718 5719 5718 5713 5703 5701 5707 5697 5691 5685 5681 5670 5671 5660 5647 5637 5630 5623 5616 5610 5605 5598 5592 5585 5578 5571 5566 5560 5553 5546 5537 5529 5520 5512 5504 5496 5488 5482 5479
5734 5731 5724 5718 5702 5699 5719 5721 5716 5702 5695 5705 5696 5686 5680 5672 5664 5663 5654 5643 5635 5627 5620 5612 5606 5600 5594 5587 5579 5571 5566 5560 5554 5547 5539 5531 5522 5513 5506 5498 5491 5484 5478 5475
5728 5724 5720 5716 5708 5720 5725 5719 5707 5691 5693 5699 5692 5683 5674 5665 5658 5655 5648 5640 5631 5624 5617 5610 5602 5596 5589 5581 5574 5566 5560 5554 5548 5541 5534 5527 5519 5510 5503 5496 5488 5482 5477 5473
5730 5727 5718 5714 5704 5711 5721 5712 5704 5703 5704 5696 5688 5680 5671 5662 5656 5650 5643 5635 5627 5620 5614 5607 5600 5593 5585 5578 5569 5563 5556 5551 5544 5538 5531 5524 5517 5509 5503 5495 5488 5482 5477 5474
5733 5734 5731 5724 5721 5724 5725 5720 5719 5712 5702 5695 5687 5679 5669 5660 5653 5646 5639 5631 5624 5616 5610 5603 5596 5590 5582 5574 5565 5559 5554 5548 5542 5535 5529 5523 5517 5509 5502 5495 5489 5484 5478 5475
5737 5730 5725 5720 5728 5727 5724 5721 5716 5709 5700 5694 5685 5675 5666 5657 5650 5642 5635 5627 5620 5613 5606 5600 5593 5586 5579 5571 5563 5556 5551 5546 5539 5534 5529 5524 5518 5512 5504 5497 5491 5486 5481 5478
5734 5727 5723 5718 5725 5724 5722 5719 5716 5708 5699 5690 5681 5672 5663 5653 5645 5638 5630 5623 5616 5609 5603 5596 5588 5582 5575 5568 5561 5555 5549 5543 5538 5534 5530 5525 5520 5513 5507 5502 5495 5489 5485 5478
5738 5730 5721 5720 5730 5722 5722 5722 5716 5705 5694 5686 5677 5668 5660 5651 5642 5634 5626 5619 5612 5605 5599 5593 5586 5579 5572 5565 5559 5553 5547 5542 5537 5534 5531 5527 5522 5516 5511 5507 5501 5492 5485 5478